Temperature
10 10 10 10 10 10 10 11 11 11 10 11 11 11 11 10 10 10 10 10 10 10 10 10 10 10 10 10 9 9 8 8 7 6 6 6 5 5 4 4 4 4 3
9 9 10 10 10 10 10 10 10 10 10 10 10 10 10 10 10 9 10 9 10 10 10 9 9 9 9 9 9 8 8 7 6 6 5 5 4 4 4 4 3 3 3
9 9 9 9 9 9 10 10 10 10 10 10 9 9 9 9 9 9 9 9 9 9 9 9 9 9 9 9 8 8 7 6 6 5 4 4 3 3 3 3 3 3 2
8 8 9 9 9 9 9 9 9 9 9 9 9 9 9 9 9 9 9 9 9 9 9 9 9 9 8 8 7 7 6 6 5 4 4 3 3 3 2 2 2 2 2
7 7 8 8 8 8 8 8 8 9 8 8 8 8 8 8 8 8 8 8 8 8 8 8 8 8 8 7 6 6 6 5 4 4 3 2 2 2 2 2 1 2 2
7 7 7 7 7 7 7 8 8 8 8 7 7 8 8 8 8 8 8 8 8 8 8 8 7 7 7 6 6 5 5 4 4 3 3 2 2 2 1 1 1 1 1
5 6 6 6 6 6 6 6 7 7 7 7 7 7 7 7 7 7 7 7 7 7 7 7 7 6 6 6 5 5 4 4 3 3 2 2 2 2 1 1 1 1 1
4 4 4 5 5 5 5 5 5 6 6 6 6 6 6 6 6 6 6 6 6 6 6 6 6 5 5 5 4 4 4 3 3 3 2 2 2 1 1 1 1 1 0
3 3 3 3 4 4 4 4 4 4 5 5 5 5 5 5 5 5 5 5 5 5 5 5 5 5 4 4 4 4 3 3 2 2 2 2 1 1 1 1 1 0 0
2 2 2 2 2 3 3 3 3 3 3 3 4 4 4 4 4 4 4 4 4 4 4 4 4 4 4 3 3 3 3 3 2 2 1 1 1 1 1 1 1 0 0
1 1 1 1 1 2 2 2 2 2 2 2 2 3 3 3 3 3 3 3 4 3 3 3 3 3 3 3 2 2 2 2 1 1 1 1 1 1 1 1 0 0 0
0 0 0 0 0 0 1 1 1 1 1 1 1 2 2 2 2 2 3 3 3 3 3 3 3 2 2 2 1 1 1 1 1 1 1 1 1 1 0 0 0 0 0
-1 -1 -1 -1 -1 -1 -1 -0 0 0 0 0 0 1 1 1 1 2 2 2 2 2 2 2 2 1 1 1 1 0 0 0 0 0 0 0 0 0 -0 -0 -0 -0 -0
-2 -1 -2 -2 -2 -1 -1 -1 -1 -1 -1 -1 -0 -0 0 0 1 1 1 1 1 1 1 1 1 1 0 0 -0 -1 -0 -0 -0 -0 -0 -0 -1 -1 -0 -0 -0 -0 -0
-2 -2 -3 -3 -3 -2 -2 -2 -2 -2 -2 -2 -1 -1 -1 -0 0 1 0 1 1 1 1 0 0 -0 -0 -0 -1 -1 -1 -1 -1 -1 -1 -1 -1 -1 -1 -1 -1 -1 -0
-3 -3 -3 -4 -4 -3 -3 -3 -3 -3 -2 -2 -2 -2 -1 -1 -1 -0 -0 -0 0 0 -0 -0 -0 -0 -0 -0 -1 -1 -1 -1 -1 -1 -1 -1 -1 -1 -1 -1 -1 -1 -1
-4 -4 -4 -4 -4 -4 -4 -4 -4 -3 -3 -3 -3 -2 -2 -2 -2 -1 -1 -1 -1 -1 -1 -1 -1 -0 -0 -1 -1 -1 -1 -1 -1 -1 -1 -1 -1 -1 -1 -1 -1 -1 -1
-5 -5 -5 -5 -5 -5 -5 -5 -5 -5 -4 -3 -3 -3 -3 -2 -2 -2 -2 -1 -1 -1 -1 -1 -1 -1 -1 -1 -1 -1 -1 -1 -2 -2 -2 -2 -2 -2 -2 -1 -1 -2 -2
-5 -5 -6 -6 -6 -6 -5 -5 -5 -5 -5 -5 -4 -4 -3 -3 -3 -3 -2 -2 -2 -2 -1 -1 -1 -1 -1 -1 -1 -1 -1 -1 -2 -2 -2 -2 -2 -2 -2 -2 -2 -2 -2
-6 -6 -6 -6 -6 -6 -6 -6 -6 -5 -5 -5 -5 -4 -4 -4 -3 -3 -3 -2 -2 -2 -2 -2 -1 -1 -1 -1 -1 -1 -2 -2 -2 -2 -2 -2 -2 -2 -2 -2 -2 -2 -2
-6 -6 -6 -6 -6 -6 -6 -6 -6 -6 -6 -5 -5 -5 -5 -4 -4 -4 -3 -3 -2 -2 -2 -2 -2 -2 -2 -2 -2 -2 -2 -2 -2 -2 -2 -2 -2 -2 -2 -2 -3 -3 -3
-7 -7 -7 -7 -7 -7 -7 -7 -6 -6 -6 -6 -5 -5 -5 -5 -4 -4 -4 -3 -3 -3 -2 -2 -2 -2 -2 -2 -2 -2 -2 -2 -2 -2 -2 -2 -2 -2 -3 -3 -3 -3 -3
-7 -7 -7 -7 -7 -7 -7 -7 -7 -6 -6 -6 -6 -5 -5 -5 -5 -5 -4 -4 -3 -3 -3 -3 -2 -2 -2 -2 -2 -2 -2 -2 -2 -2 -2 -2 -3 -3 -3 -3 -3 -3 -4
-7 -7 -7 -7 -7 -7 -7 -7 -7 -7 -7 -6 -6 -6 -5 -5 -5 -5 -5 -4 -4 -4 -3 -3 -3 -3 -2 -2 -3 -3 -3 -3 -3 -3 -3 -3 -3 -3 -3 -3 -3 -4 -4
-8 -8 -8 -8 -8 -8 -7 -7 -7 -7 -7 -7 -6 -6 -6 -6 -5 -5 -5 -5 -4 -4 -4 -3 -3 -3 -3 -3 -3 -3 -3 -3 -3 -3 -3 -3 -3 -3 -3 -3 -4 -4 -4
-8 -8 -8 -8 -8 -8 -8 -8 -8 -7 -7 -7 -7 -7 -6 -6 -6 -6 -5 -5 -5 -4 -4 -4 -4 -4 -3 -3 -3 -3 -3 -3 -3 -3 -3 -4 -4 -4 -4 -4 -4 -4 -5
Wind_Speed
5 3 3 2 1 1 2 2 3 4 5 6 6 7 7 7 7 7 7 8 8 7 6 7 7 6 5 4 4 3 3 3 3 1 1 2 3 4 4 4 2 2 3
6 5 4 3 3 1 0 1 2 3 4 5 6 6 7 7 8 8 8 8 8 8 8 8 7 6 7 5 4 4 3 3 3 3 1 1 2 3 3 2 1 1 2
7 6 6 5 4 3 2 1 0 2 2 3 5 6 7 7 8 7 8 8 8 8 9 9 9 8 7 6 6 5 4 3 3 3 2 1 1 2 2 1 1 1 1
7 7 6 6 5 5 4 2 1 0 1 2 3 4 5 6 7 7 7 7 7 7 8 8 8 9 8 8 7 6 5 4 3 3 3 2 2 2 2 2 2 2 2
6 6 6 5 5 5 4 3 2 1 0 2 2 3 4 5 5 7 7 7 7 7 6 6 7 8 9 8 6 6 6 5 4 4 4 3 3 3 3 3 3 2 2
6 6 5 5 5 5 4 3 2 2 1 1 3 4 4 4 7 9 8 7 8 8 8 6 7 8 9 10 9 8 8 6 6 5 4 4 4 4 4 3 3 2 2
6 6 6 6 5 5 4 4 3 2 1 2 2 3 4 5 9 10 10 7 7 7 8 8 6 7 9 7 8 8 6 5 5 5 5 5 4 5 5 4 4 3 3
6 6 7 6 6 5 5 4 4 3 2 2 3 3 3 5 9 10 10 6 6 7 8 9 8 8 9 9 8 6 5 4 4 3 4 3 3 4 5 5 5 3 2
6 6 7 7 6 6 5 5 4 4 3 3 3 3 4 5 9 10 10 5 5 6 7 8 9 9 13 14 9 8 6 4 5 6 6 6 6 7 7 5 4 3 2
6 6 6 6 6 6 6 6 4 4 4 4 4 4 5 5 9 12 11 6 6 6 6 7 11 12 15 15 9 9 8 7 6 5 4 4 4 5 6 5 5 4 3
6 6 6 6 7 6 6 5 5 4 4 4 5 5 5 7 10 13 14 8 8 7 7 7 8 15 16 16 13 8 10 8 7 7 5 4 3 3 3 4 4 4 4
6 7 7 7 7 6 6 6 5 5 5 5 5 5 5 6 8 11 15 14 11 8 8 7 8 15 16 16 12 11 13 11 6 5 5 5 4 4 3 4 6 6 5
6 7 7 7 7 6 6 6 5 5 5 5 5 5 5 4 6 12 14 15 15 8 7 11 13 16 15 12 14 15 11 7 6 5 6 5 4 5 5 4 4 5 5
7 7 7 7 7 7 6 5 5 5 6 6 6 6 5 4 5 5 7 8 11 10 7 11 15 15 12 11 11 9 7 7 7 6 5 4 5 5 4 4 4 3 2
7 7 7 7 7 7 7 6 7 7 8 8 7 6 7 7 8 10 8 7 7 7 7 6 6 6 8 7 6 6 7 7 7 6 6 5 6 5 5 4 4 4 3
7 7 6 6 6 6 7 8 10 11 13 14 13 11 9 11 12 13 14 14 14 14 9 7 8 8 9 10 9 9 8 8 7 7 6 7 7 6 6 4 4 4 4
8 8 7 7 7 7 7 7 8 9 12 13 13 13 12 12 12 12 13 15 16 16 9 8 9 10 9 10 9 9 9 8 8 7 7 7 7 6 6 5 5 5 5
8 9 9 7 8 8 8 7 7 8 8 7 9 13 14 13 12 12 13 11 9 11 7 8 8 9 9 9 10 9 8 8 8 8 8 7 7 7 6 7 7 7 6
8 7 7 7 7 8 8 7 7 8 8 8 6 7 11 11 11 12 11 7 7 7 7 8 7 8 8 9 9 9 9 9 8 8 8 8 8 8 7 7 7 10 8
8 12 11 8 8 8 7 8 8 8 8 7 7 6 5 5 5 6 6 5 5 6 6 7 8 8 8 9 9 8 9 9 10 9 9 9 9 8 9 9 8 8 7
8 9 12 10 8 8 8 8 8 8 8 8 7 8 10 6 5 6 6 5 6 6 6 6 6 7 8 8 8 9 10 9 9 9 9 9 9 9 8 8 8 8 7
8 8 8 8 8 8 8 7 7 8 8 9 7 7 11 7 5 5 5 5 5 5 5 5 5 6 7 8 9 9 9 9 9 10 10 9 9 9 9 8 8 7 7
8 9 8 8 8 11 10 7 7 7 7 7 6 6 5 5 5 5 5 4 4 4 4 5 5 5 5 6 7 8 9 10 9 10 10 10 10 9 9 9 10 9 9
8 8 9 8 8 8 7 7 7 7 7 6 6 5 5 4 4 4 4 3 3 4 4 4 5 6 7 7 7 8 9 9 10 10 11 10 10 9 9 8 9 9 9
8 8 8 8 8 7 7 7 6 6 6 6 6 5 4 4 3 3 3 3 3 3 3 3 4 5 8 8 8 8 12 15 14 12 10 9 9 10 9 9 8 7 8
8 8 8 7 7 6 7 7 7 6 5 5 5 4 4 3 3 3 3 2 2 2 2 2 3 4 6 7 8 10 12 15 16 16 12 8 9 9 9 8 9 8 8
Wind_Direction
25 25 36 24 24 225 202 196 192 185 180 181 184 178 173 173 175 178 177 175 176 169 166 169 171 158 153 152 150 159 169 166 202 202 94 119 131 137 134 130 124 98 101
20 24 34 28 17 14 310 207 186 179 180 183 181 178 178 178 181 182 181 179 179 177 177 171 171 159 156 156 160 168 171 169 179 202 164 144 144 147 136 136 146 137 121
20 22 27 24 15 5 8 26 129 173 171 178 181 184 183 183 182 182 181 180 181 181 177 175 170 164 170 165 165 169 170 166 164 175 182 146 135 132 130 160 184 183 179
18 21 21 14 9 5 6 13 13 127 173 185 188 188 183 182 181 180 179 179 178 176 173 171 169 172 175 169 170 173 168 166 170 181 193 187 177 161 164 189 208 208 213
15 16 12 7 7 7 7 6 5 5 218 187 185 186 183 183 186 180 179 177 172 163 157 156 158 159 162 166 169 169 167 172 180 189 197 189 185 177 198 189 193 181 210
10 6 3 5 4 3 359 355 353 343 303 217 205 197 195 197 189 186 180 177 171 167 165 157 149 147 156 162 162 165 169 177 185 187 197 204 205 196 178 171 162 156 228
3 0 358 357 356 351 346 341 331 318 293 252 225 210 207 200 191 190 185 175 172 172 167 162 164 170 164 155 162 161 165 172 177 175 191 204 196 186 165 165 178 182 195
357 356 354 351 344 340 336 326 314 305 284 266 250 227 213 205 197 192 184 172 167 168 170 170 168 166 171 166 164 164 166 172 176 171 177 180 161 150 158 168 170 135 99
349 346 342 337 331 326 320 311 306 299 287 274 263 244 228 214 200 195 184 169 172 176 175 175 174 175 185 181 170 166 167 172 163 148 140 136 133 140 143 128 134 134 175
333 328 324 320 316 310 304 298 291 284 274 267 260 249 233 223 210 204 191 180 181 182 182 187 190 189 191 187 176 172 181 183 162 152 146 146 141 156 160 154 159 159 166
315 311 309 308 304 297 295 290 281 275 270 258 251 248 238 227 216 212 204 195 190 188 190 192 196 198 196 194 189 185 193 176 164 162 164 166 160 155 142 131 142 158 160
310 308 306 304 302 300 293 289 278 266 263 258 253 252 244 231 222 218 216 212 200 193 195 191 193 196 197 197 196 194 192 174 156 162 168 176 175 171 158 135 127 122 129
307 302 300 300 298 296 290 286 283 271 262 258 252 250 248 235 225 226 225 222 213 203 196 192 192 195 195 197 198 195 187 169 164 176 186 188 180 166 147 132 117 113 103
301 301 299 299 297 296 292 282 273 267 265 261 256 254 251 239 226 218 221 225 219 210 197 195 192 192 187 189 192 194 180 177 178 185 183 173 156 153 158 156 157 157 149
293 293 295 293 291 290 285 279 275 264 263 265 258 253 251 247 237 228 224 220 212 201 178 170 173 175 183 185 184 182 180 185 195 182 177 171 170 170 173 168 163 164 175
293 293 291 290 287 285 286 287 278 274 278 276 271 267 261 256 254 243 235 232 224 206 191 188 191 191 192 191 192 191 192 194 192 185 181 179 178 179 178 173 170 177 191
288 289 288 287 286 285 283 283 290 290 280 277 276 273 270 265 255 248 240 233 226 213 207 199 197 196 195 193 192 193 196 193 186 186 187 184 179 179 178 182 184 190 201
291 289 288 284 283 283 280 278 278 283 288 283 275 272 272 270 261 248 241 232 225 215 207 201 200 197 195 193 193 193 192 186 186 190 189 186 183 184 188 191 193 197 201
293 288 284 283 282 283 280 277 276 275 275 278 280 276 272 271 266 253 237 227 220 216 208 203 200 196 194 193 193 191 189 190 189 190 192 191 190 192 198 199 198 205 203
293 290 290 286 283 283 281 279 278 277 275 272 271 270 271 269 264 253 236 221 219 218 209 207 202 197 194 191 190 190 191 191 192 194 195 195 195 197 201 200 199 200 204
294 294 294 290 283 281 279 278 279 279 276 273 268 264 265 263 258 252 242 231 223 220 214 208 204 198 195 190 189 191 193 196 196 196 196 196 196 200 202 202 201 201 201
295 293 292 291 289 284 281 276 276 276 277 276 273 270 266 263 256 255 249 240 228 219 212 207 206 200 195 192 191 191 196 198 197 196 197 196 196 199 200 200 200 199 199
295 294 294 293 291 290 289 280 278 279 278 277 278 273 267 257 253 255 254 245 230 220 209 205 206 203 197 193 192 193 197 200 198 193 194 196 196 197 197 199 199 197 200
300 297 296 296 294 290 288 287 285 284 283 282 279 274 268 261 257 258 260 253 240 230 216 207 205 201 195 195 195 198 199 194 190 193 191 192 193 194 194 197 198 200 200
305 302 301 299 298 299 299 296 294 293 293 293 291 287 280 271 265 260 259 256 248 241 225 211 206 201 198 197 196 196 199 195 192 190 188 189 191 192 192 194 195 195 198
307 305 303 302 299 299 299 299 299 298 296 295 294 294 292 288 280 271 262 256 248 241 234 222 207 199 199 201 199 198 199 198 195 190 185 186 188 191 190 193 193 194 193
Height
1448 1449 1451 1452 1453 1455 1457 1458 1460 1462 1464 1466 1468 1470 1472 1474 1477 1479 1481 1484 1487 1489 1491 1493 1495 1497 1499 1500 1502 1503 1504 1505 1505 1506 1506 1506 1506 1506 1506 1506 1506 1505 1505
1448 1449 1450 1451 1452 1453 1455 1456 1457 1458 1460 1462 1464 1465 1467 1470 1472 1475 1477 1479 1482 1483 1485 1488 1490 1491 1493 1495 1496 1497 1498 1499 1500 1500 1501 1502 1502 1502 1502 1502 1502 1502 1501
1449 1450 1450 1451 1451 1452 1452 1453 1454 1455 1457 1458 1460 1461 1463 1465 1468 1470 1472 1474 1476 1478 1480 1482 1484 1486 1488 1489 1490 1492 1493 1494 1494 1495 1496 1497 1497 1497 1497 1498 1498 1498 1498
1450 1450 1450 1450 1450 1450 1450 1451 1451 1452 1453 1455 1456 1457 1459 1461 1463 1465 1467 1469 1471 1473 1475 1477 1479 1480 1482 1483 1485 1486 1487 1488 1489 1490 1490 1491 1492 1492 1493 1493 1493 1494 1494
1450 1449 1449 1449 1449 1448 1448 1448 1449 1449 1450 1451 1452 1454 1455 1456 1458 1460 1462 1464 1466 1468 1469 1471 1473 1475 1476 1478 1480 1481 1482 1482 1483 1484 1485 1486 1487 1488 1488 1489 1489 1490 1490
1449 1448 1448 1447 1446 1446 1446 1446 1446 1446 1446 1447 1448 1449 1450 1452 1453 1455 1457 1458 1460 1462 1464 1466 1468 1469 1471 1472 1474 1475 1476 1477 1478 1479 1479 1481 1482 1483 1484 1484 1485 1485 1487
1448 1447 1446 1445 1444 1443 1443 1443 1442 1442 1442 1443 1444 1444 1445 1447 1448 1450 1451 1453 1454 1456 1458 1460 1462 1464 1465 1467 1468 1469 1471 1472 1473 1474 1475 1476 1477 1478 1479 1480 1481 1482 1482
1447 1446 1444 1443 1442 1441 1440 1439 1439 1439 1439 1439 1439 1439 1440 1441 1443 1444 1446 1447 1448 1450 1452 1454 1456 1458 1460 1461 1463 1464 1465 1466 1468 1469 1470 1471 1472 1474 1475 1477 1478 1478 1479
1446 1444 1443 1441 1440 1438 1437 1436 1435 1435 1434 1434 1434 1435 1435 1436 1438 1439 1440 1441 1443 1445 1447 1448 1450 1452 1454 1456 1457 1458 1459 1461 1463 1464 1466 1467 1468 1469 1470 1472 1473 1474 1475
1444 1442 1440 1438 1437 1435 1433 1432 1431 1431 1430 1430 1430 1430 1430 1431 1432 1433 1435 1436 1437 1439 1440 1442 1444 1446 1448 1450 1451 1453 1454 1456 1457 1459 1461 1462 1463 1465 1466 1467 1469 1471 1472
1441 1439 1437 1435 1433 1431 1429 1428 1427 1426 1425 1424 1424 1424 1425 1425 1426 1427 1429 1430 1431 1432 1434 1436 1438 1440 1442 1444 1446 1447 1449 1451 1452 1454 1456 1457 1459 1461 1462 1463 1465 1467 1468
1438 1435 1433 1431 1429 1427 1425 1423 1422 1421 1419 1419 1418 1418 1419 1419 1420 1421 1422 1424 1425 1426 1428 1430 1432 1434 1436 1438 1440 1442 1444 1445 1447 1449 1451 1453 1455 1457 1458 1460 1462 1463 1465
1433 1431 1429 1426 1424 1422 1420 1418 1416 1415 1414 1413 1413 1412 1413 1413 1414 1415 1416 1417 1418 1420 1421 1424 1426 1428 1430 1432 1434 1437 1439 1440 1442 1444 1446 1449 1451 1453 1455 1457 1458 1460 1462
1429 1426 1424 1421 1419 1417 1415 1413 1411 1410 1409 1408 1407 1407 1406 1407 1407 1408 1409 1410 1412 1413 1415 1417 1420 1422 1424 1427 1429 1431 1433 1435 1438 1440 1442 1445 1447 1449 1451 1453 1455 1456 1458
1424 1422 1419 1416 1414 1411 1409 1408 1406 1404 1404 1402 1401 1401 1401 1400 1401 1402 1402 1403 1405 1407 1409 1411 1413 1415 1418 1420 1423 1425 1428 1430 1433 1435 1437 1440 1442 1445 1447 1449 1451 1453 1454
1419 1416 1413 1411 1408 1406 1403 1401 1399 1398 1397 1396 1395 1395 1394 1394 1394 1395 1396 1397 1398 1401 1402 1403 1406 1408 1411 1413 1416 1419 1422 1425 1427 1430 1432 1435 1437 1440 1442 1445 1447 1449 1450
1414 1411 1408 1405 1403 1400 1397 1395 1392 1391 1390 1389 1388 1387 1387 1387 1387 1388 1389 1390 1392 1394 1395 1396 1398 1401 1404 1407 1410 1413 1416 1419 1422 1425 1427 1430 1432 1435 1437 1440 1442 1444 1446
1409 1406 1403 1400 1397 1395 1392 1390 1387 1385 1383 1381 1381 1380 1380 1380 1380 1381 1382 1384 1385 1386 1387 1389 1392 1395 1398 1401 1404 1407 1410 1413 1416 1419 1422 1424 1427 1430 1432 1434 1437 1439 1441
1403 1400 1397 1394 1392 1389 1386 1384 1382 1380 1377 1375 1374 1374 1374 1373 1373 1374 1375 1376 1377 1379 1381 1383 1386 1389 1392 1395 1398 1401 1404 1407 1410 1413 1416 1419 1421 1424 1426 1429 1431 1434 1436
1397 1394 1391 1388 1385 1383 1380 1378 1376 1374 1372 1370 1369 1368 1368 1368 1367 1368 1369 1370 1371 1373 1375 1377 1380 1383 1386 1389 1392 1395 1398 1401 1404 1407 1410 1413 1416 1418 1421 1424 1426 1428 1430
1391 1388 1385 1382 1380 1377 1375 1373 1371 1369 1366 1365 1364 1363 1363 1363 1362 1362 1363 1364 1365 1367 1369 1371 1374 1376 1379 1382 1386 1389 1392 1395 1398 1401 1404 1407 1410 1413 1415 1418 1420 1423 1425
1386 1382 1380 1377 1374 1372 1370 1367 1365 1363 1361 1360 1358 1358 1357 1357 1357 1357 1358 1359 1360 1362 1364 1366 1368 1371 1373 1376 1379 1383 1386 1389 1392 1395 1398 1401 1404 1407 1409 1412 1414 1416 1419
1381 1378 1375 1372 1369 1367 1364 1362 1360 1358 1356 1355 1354 1353 1352 1352 1352 1352 1353 1354 1356 1357 1359 1361 1363 1365 1368 1371 1374 1377 1380 1383 1386 1389 1392 1395 1398 1400 1403 1405 1408 1410 1412
1376 1373 1370 1367 1364 1362 1359 1357 1355 1353 1352 1350 1349 1349 1348 1348 1348 1348 1348 1349 1351 1352 1354 1356 1358 1360 1363 1365 1368 1371 1374 1377 1380 1383 1386 1389 1392 1394 1397 1399 1402 1404 1406
1373 1370 1367 1363 1361 1358 1355 1353 1351 1349 1348 1346 1345 1345 1344 1344 1343 1344 1344 1345 1346 1348 1349 1351 1353 1355 1357 1360 1363 1366 1369 1372 1374 1377 1380 1383 1386 1388 1391 1393 1396 1398 1400
1369 1366 1363 1360 1357 1355 1352 1350 1348 1346 1345 1343 1342 1341 1340 1340 1340 1340 1340 1341 1342 1343 1345 1346 1348 1350 1353 1355 1358 1361 1363 1366 1369 1372 1375 1377 1380 1382 1385 1388 1390 1392 1394